Location: Altleiningen
(49.5078°N, 8.0741°E)
Time: 04:07:23
(UTC+00:00)

Cosmos 1470 Rocket - Pass Details

Date: 03 March 2021
Orbit: 602 x 635 km, 82.5° (Epoch: 11 April)

Event Time Altitude Azimuth Distance (km) Brightness Sun altitude
Rises 18:35:48 0° 192° (SSW) 2,918 7.1 -14.1°
Reaches altitude 10° 18:38:02 10° 194° (SSW) 2,013 6.3 -14.4°
Maximum altitude 18:42:31 77° 281° (W) 653 3.7 -15.2°
Drops below altitude 10° 18:46:59 10° 7° (N) 2,015 6.2 -15.9°
Sets 18:49:14 0° 9° (N) 2,922 7.0 -16.2°
